| time (UTC) | temp F | wind direction | speed knots | gust knots | rain 1hr in | rain 24hr in | rain mn in | humidity % | barometer mb |
| 20260510081511 | 57 | 304 | 1.7 | 4.3 | 0.00 | 0.00 | 0.00 | 72 | 1014.5 |
| 20260510081011 | 57 | 249 | 1.7 | 6.1 | 0.00 | 0.00 | 0.00 | 73 | 1014.5 |
| 20260510080514 | 57 | 231 | 0.9 | 6.1 | 0.00 | 0.00 | 0.00 | 73 | 1014.5 |
| 20260510080009 | 57 | 290 | 0.9 | 4.3 | 0.00 | 0.00 | 0.00 | 73 | 1014.4 |
| 20260510075514 | 57 | 260 | 0.9 | 2.6 | 0.00 | 0.00 | 0.00 | 72 | 1014.3 |
| 20260510075008 | 57 | 282 | 0.9 | 4.3 | 0.00 | 0.00 | 0.00 | 72 | 1014.3 |
| 20260510074508 | 57 | 233 | 1.7 | 4.3 | 0.00 | 0.00 | 0.00 | 72 | 1014.3 |
| 20260510074008 | 57 | 298 | 0.9 | 4.3 | 0.00 | 0.00 | 0.00 | 72 | 1014.2 |
| 20260510073513 | 57 | 330 | 0.9 | 3.5 | 0.00 | 0.00 | 0.00 | 72 | 1014.2 |
| 20260510073007 | 57 | 260 | 0.9 | 3.5 | 0.00 | 0.00 | 0.00 | 72 | 1014.2 |
| 20260510072507 | 57 | 314 | 0.9 | 3.5 | 0.00 | 0.00 | 0.00 | 72 | 1014.2 |
| 20260510072009 | 57 | 304 | 0.9 | 4.3 | 0.00 | 0.00 | 0.00 | 72 | 1014.2 |
| 20260510071507 | 57 | 321 | 1.7 | 4.3 | 0.00 | 0.00 | 0.00 | 71 | 1014.3 |
| 20260510071007 | 57 | 226 | 0.9 | 3.5 | 0.00 | 0.00 | 0.00 | 71 | 1014.2 |
| 20260510070506 | 57 | 1 | 0.9 | 3.5 | 0.00 | 0.00 | 0.00 | 71 | 1014.3 |
| 20260510070005 | 58 | 297 | 0.9 | 3.5 | 0.00 | 0.00 | 0.00 | 71 | 1014.3 |
| 20260510065505 | 58 | 278 | 0.9 | 2.6 | 0.00 | 0.00 | 0.00 | 71 | 1014.1 |
| 20260510065005 | 58 | 232 | 0.0 | 5.2 | 0.00 | 0.00 | 0.00 | 70 | 1014.1 |
| 20260510064504 | 58 | 13 | 1.7 | 5.2 | 0.00 | 0.00 | 0.00 | 71 | 1014.0 |
| 20260510064003 | 58 | 337 | 1.7 | 5.2 | 0.00 | 0.00 | 0.00 | 71 | 1013.9 |
| 20260510063504 | 57 | 245 | 2.6 | 5.2 | 0.00 | 0.00 | 0.00 | 71 | 1013.9 |
| 20260510063003 | 57 | 37 | 1.7 | 3.5 | 0.00 | 0.00 | 0.00 | 71 | 1014.0 |
| 20260510062503 | 57 | 1 | 0.9 | 2.6 | 0.00 | 0.00 | 0.00 | 70 | 1014.1 |
| 20260510062002 | 57 | 1 | 0.0 | 3.5 | 0.00 | 0.00 | 0.00 | 70 | 1014.0 |
| 20260510061502 | 57 | 113 | 0.9 | 3.5 | 0.00 | 0.00 | 0.00 | 70 | 1014.0 |
| 20260510061004 | 57 | 260 | 0.9 | 2.6 | 0.00 | 0.00 | 0.00 | 70 | 1014.0 |
| 20260510060503 | 57 | 44 | 0.9 | 3.5 | 0.00 | 0.00 | 0.00 | 70 | 1014.0 |
| 20260510060004 | 57 | 321 | 0.9 | 3.5 | 0.00 | 0.00 | 0.00 | 70 | 1014.0 |
| 20260510055500 | 57 | 333 | 0.9 | 3.5 | 0.00 | 0.00 | 0.00 | 70 | 1014.1 |
| 20260510055100 | 57 | 86 | 0.9 | 2.6 | 0.00 | 0.00 | 0.00 | 70 | 1014.1 |
| 20260510054559 | 58 | 260 | 0.9 | 3.5 | 0.00 | 0.00 | 0.00 | 69 | 1014.0 |
| 20260510054058 | 58 | 1 | 0.0 | 3.5 | 0.00 | 0.00 | 0.00 | 68 | 1014.1 |
| 20260510053556 | 58 | 229 | 0.0 | 2.6 | 0.00 | 0.00 | 0.00 | 67 | 1014.1 |
| 20260510053056 | 58 | 44 | 0.0 | 3.5 | 0.00 | 0.00 | 0.00 | 67 | 1013.9 |
| 20260510052557 | 58 | 1 | 0.9 | 3.5 | 0.00 | 0.00 | 0.00 | 67 | 1014.0 |
| 20260510052055 | 58 | 321 | 0.9 | 3.5 | 0.00 | 0.00 | 0.00 | 67 | 1013.9 |
| 20260510051601 | 58 | 271 | 0.9 | 3.5 | 0.00 | 0.00 | 0.00 | 67 | 1013.9 |
| 20260510051054 | 58 | 231 | 0.9 | 3.5 | 0.00 | 0.00 | 0.00 | 66 | 1013.9 |
| 20260510050553 | 58 | 219 | 0.0 | 3.5 | 0.00 | 0.00 | 0.00 | 66 | 1014.0 |
| 20260510050053 | 58 | 220 | 0.9 | 3.5 | 0.00 | 0.00 | 0.00 | 66 | 1014.1 |
| 20260510045553 | 58 | 293 | 0.0 | 4.3 | 0.00 | 0.00 | 0.00 | 66 | 1014.1 |
| 20260510045052 | 58 | 1 | 0.9 | 4.3 | 0.00 | 0.00 | 0.00 | 65 | 1014.1 |
| 20260510044555 | 59 | 245 | 0.9 | 4.3 | 0.00 | 0.00 | 0.00 | 65 | 1014.1 |
| 20260510044052 | 59 | 226 | 0.9 | 4.3 | 0.00 | 0.00 | 0.00 | 65 | 1014.1 |
| 20260510043550 | 59 | 326 | 1.7 | 4.3 | 0.00 | 0.00 | 0.00 | 64 | 1014.2 |
| 20260510043058 | 59 | 242 | 1.7 | 5.2 | 0.00 | 0.00 | 0.00 | 64 | 1014.1 |
| 20260510042549 | 59 | 278 | 1.7 | 5.2 | 0.00 | 0.00 | 0.00 | 64 | 1014.3 |
| 20260510042048 | 59 | 20 | 0.9 | 4.3 | 0.00 | 0.00 | 0.00 | 64 | 1014.3 |
| 20260510041606 | 59 | 216 | 0.0 | 4.3 | 0.00 | 0.00 | 0.00 | 64 | 1014.3 |
| 20260510041048 | 59 | 304 | 1.7 | 4.3 | 0.00 | 0.00 | 0.00 | 64 | 1014.4 |
| 20260510040546 | 59 | 242 | 1.7 | 5.2 | 0.00 | 0.00 | 0.00 | 64 | 1014.4 |
| 20260510040045 | 59 | 245 | 1.7 | 5.2 | 0.00 | 0.00 | 0.00 | 64 | 1014.3 |
| 20260510035544 | 59 | 231 | 1.7 | 4.3 | 0.00 | 0.00 | 0.00 | 64 | 1014.3 |
| 20260510035044 | 59 | 203 | 0.9 | 5.2 | 0.00 | 0.00 | 0.00 | 64 | 1014.3 |
| 20260510034547 | 59 | 24 | 1.7 | 5.2 | 0.00 | 0.00 | 0.00 | 65 | 1014.3 |
| 20260510034047 | 58 | 245 | 1.7 | 4.3 | 0.00 | 0.00 | 0.00 | 65 | 1014.2 |
| 20260510033547 | 58 | 1 | 0.9 | 3.5 | 0.00 | 0.00 | 0.00 | 65 | 1014.3 |
| 20260510033045 | 59 | 13 | 0.9 | 5.2 | 0.00 | 0.00 | 0.00 | 65 | 1014.3 |
| 20260510032546 | 59 | 219 | 0.9 | 5.2 | 0.00 | 0.00 | 0.00 | 65 | 1014.3 |
| 20260510032046 | 59 | 1 | 0.0 | 3.5 | 0.00 | 0.00 | 0.00 | 64 | 1014.3 |
| 20260510031543 | 59 | 245 | 0.9 | 3.5 | 0.00 | 0.00 | 0.00 | 64 | 1014.2 |
| 20260510031045 | 59 | 172 | 0.9 | 4.3 | 0.00 | 0.00 | 0.00 | 64 | 1014.2 |
| 20260510030546 | 59 | 216 | 1.7 | 5.2 | 0.00 | 0.00 | 0.00 | 64 | 1014.3 |
| 20260510030049 | 59 | 233 | 1.7 | 5.2 | 0.00 | 0.00 | 0.00 | 64 | 1014.3 |
| 20260510025542 | 59 | 221 | 0.9 | 4.3 | 0.00 | 0.00 | 0.00 | 65 | 1014.2 |
| 20260510025041 | 59 | 330 | 0.9 | 4.3 | 0.00 | 0.00 | 0.00 | 64 | 1014.1 |
| 20260510024552 | 60 | 206 | 0.9 | 3.5 | 0.00 | 0.00 | 0.00 | 64 | 1013.9 |
| 20260510024045 | 60 | 260 | 1.7 | 3.5 | 0.00 | 0.00 | 0.00 | 63 | 1013.9 |
| 20260510023542 | 60 | 226 | 0.9 | 3.5 | 0.00 | 0.00 | 0.00 | 63 | 1013.9 |
| 20260510023041 | 60 | 216 | 0.0 | 4.3 | 0.00 | 0.00 | 0.00 | 62 | 1013.9 |
| 20260510022546 | 60 | 140 | 0.0 | 4.3 | 0.00 | 0.00 | 0.00 | 62 | 1013.8 |
| 20260510022041 | 60 | 172 | 0.0 | 4.3 | 0.00 | 0.00 | 0.00 | 62 | 1013.6 |
| 20260510021541 | 60 | 304 | 1.7 | 4.3 | 0.00 | 0.00 | 0.00 | 63 | 1013.6 |
| 20260510021040 | 60 | 232 | 0.9 | 4.3 | 0.00 | 0.00 | 0.00 | 63 | 1013.4 |
| 20260510020540 | 60 | 307 | 1.7 | 4.3 | 0.00 | 0.00 | 0.00 | 63 | 1013.3 |
| 20260510020048 | 60 | 304 | 0.9 | 3.5 | 0.00 | 0.00 | 0.00 | 63 | 1013.3 |
| 20260510015540 | 61 | 244 | 0.9 | 2.6 | 0.00 | 0.00 | 0.00 | 63 | 1013.3 |
| 20260510015039 | 61 | 86 | 0.0 | 3.5 | 0.00 | 0.00 | 0.00 | 61 | 1013.2 |
| 20260510014540 | 61 | 131 | 0.9 | 3.5 | 0.00 | 0.00 | 0.00 | 61 | 1013.2 |
| 20260510014039 | 61 | 260 | 0.0 | 5.2 | 0.00 | 0.00 | 0.00 | 61 | 1013.0 |
| 20260510013539 | 61 | 1 | 0.9 | 5.2 | 0.00 | 0.00 | 0.00 | 62 | 1012.9 |
| 20260510013046 | 61 | 17 | 1.7 | 5.2 | 0.00 | 0.00 | 0.00 | 63 | 1012.7 |
| 20260510012543 | 62 | 328 | 0.9 | 2.6 | 0.00 | 0.00 | 0.00 | 63 | 1012.7 |
| 20260510012039 | 62 | 316 | 0.9 | 3.5 | 0.00 | 0.00 | 0.00 | 61 | 1012.6 |
| 20260510011540 | 62 | 316 | 0.9 | 3.5 | 0.00 | 0.00 | 0.00 | 61 | 1012.6 |
| 20260510011038 | 62 | 242 | 0.0 | 3.5 | 0.00 | 0.00 | 0.00 | 61 | 1012.6 |
| 20260510010539 | 62 | 260 | 0.9 | 3.5 | 0.00 | 0.00 | 0.00 | 61 | 1012.6 |
| 20260510010056 | 62 | 240 | 0.9 | 2.6 | 0.00 | 0.00 | 0.00 | 61 | 1012.4 |
| 20260510005538 | 62 | 260 | 0.9 | 2.6 | 0.00 | 0.00 | 0.00 | 62 | 1012.4 |
| 20260510005037 | 62 | 216 | 0.9 | 1.7 | 0.00 | 0.00 | 0.00 | 62 | 1012.2 |
| 20260510004537 | 62 | 321 | 0.0 | 3.5 | 0.00 | 0.00 | 0.00 | 63 | 1012.2 |
| 20260510004037 | 63 | 314 | 0.9 | 3.5 | 0.00 | 0.00 | 0.00 | 63 | 1012.1 |
| 20260510003537 | 63 | 215 | 0.0 | 1.7 | 0.00 | 0.00 | 0.00 | 62 | 1012.0 |
| 20260510003036 | 63 | 147 | 0.0 | 3.5 | 0.00 | 0.00 | 0.00 | 62 | 1011.9 |
| 20260510002537 | 64 | 321 | 0.0 | 3.5 | 0.00 | 0.00 | 0.00 | 63 | 1011.7 |
| 20260510002036 | 64 | 271 | 0.9 | 5.2 | 0.00 | 0.00 | 0.00 | 63 | 1011.7 |
| 20260510001536 | 64 | 44 | 1.7 | 5.2 | 0.00 | 0.00 | 0.00 | 62 | 1011.6 |
| 20260510001040 | 65 | 172 | 0.9 | 4.3 | 0.00 | 0.00 | 0.00 | 63 | 1011.5 |
| 20260510000538 | 65 | 226 | 0.9 | 4.3 | 0.00 | 0.00 | 0.00 | 63 | 1011.5 |
| 20260510000041 | 65 | 212 | 0.9 | 2.6 | 0.00 | 0.00 | 0.00 | 64 | 1011.5 |
| 20260509235535 | 66 | 233 | 0.9 | 1.7 | 0.00 | 0.00 | 0.00 | 65 | 1011.4 |
| 20260509235035 | 66 | 27 | 0.0 | 1.7 | 0.00 | 0.00 | 0.00 | 65 | 1011.4 |
| 20260509234550 | 67 | 61 | 0.9 | 2.6 | 0.00 | 0.00 | 0.00 | 65 | 1011.4 |
| 20260509234037 | 67 | 19 | 0.0 | 2.6 | 0.00 | 0.00 | 0.00 | 65 | 1011.3 |
| 20260509233538 | 67 | 1 | 0.9 | 2.6 | 0.00 | 0.00 | 0.00 | 64 | 1011.3 |
| 20260509233035 | 67 | 224 | 0.0 | 2.6 | 0.00 | 0.00 | 0.00 | 64 | 1011.4 |
| 20260509232538 | 68 | 44 | 0.9 | 3.5 | 0.00 | 0.00 | 0.00 | 64 | 1011.3 |
| 20260509232034 | 68 | 44 | 0.9 | 4.3 | 0.00 | 0.00 | 0.00 | 63 | 1011.3 |
| 20260509231535 | 68 | 233 | 1.7 | 4.3 | 0.00 | 0.00 | 0.00 | 64 | 1011.3 |
| 20260509231033 | 68 | 172 | 0.9 | 4.3 | 0.00 | 0.00 | 0.00 | 66 | 1011.3 |
| 20260509230537 | 67 | 215 | 0.0 | 2.6 | 0.00 | 0.00 | 0.00 | 69 | 1011.3 |
| 20260509230033 | 66 | 250 | 0.9 | 2.6 | 0.00 | 0.00 | 0.00 | 67 | 1011.3 |
| 20260509225533 | 67 | 23 | 0.0 | 2.6 | 0.00 | 0.00 | 0.00 | 66 | 1011.2 |
| 20260509225034 | 67 | 304 | 0.0 | 2.6 | 0.00 | 0.00 | 0.00 | 66 | 1011.3 |
| 20260509224533 | 67 | 44 | 0.9 | 3.5 | 0.00 | 0.00 | 0.00 | 66 | 1011.1 |
| 20260509224033 | 67 | 44 | 0.9 | 4.3 | 0.00 | 0.00 | 0.00 | 65 | 1011.2 |
| 20260509223533 | 67 | 44 | 0.9 | 4.3 | 0.00 | 0.00 | 0.00 | 66 | 1011.2 |
| 20260509223032 | 67 | 242 | 0.9 | 3.5 | 0.00 | 0.00 | 0.00 | 65 | 1011.3 |
| 20260509222532 | 67 | 147 | 0.0 | 2.6 | 0.00 | 0.00 | 0.00 | 66 | 1011.2 |
| 20260509222035 | 67 | 131 | 0.0 | 2.6 | 0.00 | 0.00 | 0.00 | 67 | 1011.3 |
| 20260509221557 | 67 | 233 | 0.0 | 3.5 | 0.00 | 0.00 | 0.00 | 65 | 1011.3 |
| 20260509221032 | 68 | 172 | 0.9 | 3.5 | 0.00 | 0.00 | 0.00 | 65 | 1011.3 |
| 20260509220531 | 68 | 120 | 0.9 | 3.5 | 0.00 | 0.00 | 0.00 | 65 | 1011.3 |
| 20260509220032 | 68 | 155 | 0.9 | 3.5 | 0.00 | 0.00 | 0.00 | 66 | 1011.3 |
| 20260509215531 | 68 | 199 | 0.9 | 7.0 | 0.00 | 0.00 | 0.00 | 64 | 1011.3 |
| 20260509215030 | 68 | 159 | 0.9 | 7.0 | 0.00 | 0.00 | 0.00 | 63 | 1011.3 |
| 20260509214530 | 69 | 260 | 0.9 | 2.6 | 0.00 | 0.00 | 0.00 | 62 | 1011.3 |
| 20260509214030 | 69 | 194 | 0.0 | 4.3 | 0.00 | 0.00 | 0.00 | 64 | 1011.3 |
| 20260509213531 | 68 | 131 | 0.9 | 4.3 | 0.00 | 0.00 | 0.00 | 62 | 1011.2 |
| 20260509213031 | 68 | 137 | 0.9 | 4.3 | 0.00 | 0.00 | 0.00 | 64 | 1011.2 |
| 20260509212534 | 68 | 86 | 0.9 | 2.6 | 0.00 | 0.00 | 0.00 | 67 | 1011.1 |
| 20260509212029 | 67 | 215 | 0.0 | 3.5 | 0.00 | 0.00 | 0.00 | 66 | 1011.0 |
| 20260509211530 | 67 | 172 | 1.7 | 3.5 | 0.00 | 0.00 | 0.00 | 64 | 1011.2 |
| 20260509211030 | 67 | 159 | 0.9 | 3.5 | 0.00 | 0.00 | 0.00 | 64 | 1011.1 |
| 20260509210530 | 67 | 153 | 0.9 | 7.8 | 0.00 | 0.00 | 0.00 | 65 | 1011.1 |
| 20260509210028 | 67 | 77 | 0.9 | 7.8 | 0.00 | 0.00 | 0.00 | 63 | 1011.1 |
| 20260509205528 | 67 | 140 | 0.9 | 3.5 | 0.00 | 0.00 | 0.00 | 63 | 1011.0 |
| 20260509205029 | 67 | 277 | 0.9 | 4.3 | 0.00 | 0.00 | 0.00 | 63 | 1011.0 |
| 20260509204529 | 67 | 226 | 1.7 | 4.3 | 0.00 | 0.00 | 0.00 | 63 | 1010.9 |
| 20260509204028 | 67 | 212 | 0.9 | 6.1 | 0.00 | 0.00 | 0.00 | 61 | 1011.0 |
| 20260509203528 | 67 | 172 | 2.6 | 6.1 | 0.00 | 0.00 | 0.00 | 60 | 1010.8 |
| 20260509203030 | 67 | 13 | 1.7 | 4.3 | 0.00 | 0.00 | 0.00 | 60 | 1010.8 |
| 20260509202529 | 68 | 137 | 1.7 | 4.3 | 0.00 | 0.00 | 0.00 | 57 | 1010.7 |
| 20260509202030 | 68 | 60 | 1.7 | 6.1 | 0.00 | 0.00 | 0.00 | 58 | 1010.7 |
| 20260509201527 | 69 | 101 | 1.7 | 7.0 | 0.00 | 0.00 | 0.00 | 57 | 1010.7 |
| 20260509201032 | 70 | 228 | 2.6 | 7.8 | 0.00 | 0.00 | 0.00 | 55 | 1010.9 |
| 20260509200530 | 71 | 259 | 0.9 | 7.8 | 0.00 | 0.00 | 0.00 | 59 | 1010.8 |
| 20260509200025 | 71 | 86 | 0.9 | 5.2 | 0.00 | 0.00 | 0.00 | 60 | 1010.7 |
| 20260509195525 | 70 | 105 | 1.7 | 7.0 | 0.00 | 0.00 | 0.00 | 61 | 1010.8 |
| 20260509195026 | 69 | 286 | 1.7 | 7.0 | 0.00 | 0.00 | 0.00 | 61 | 1010.9 |
| 20260509194524 | 68 | 141 | 2.6 | 6.1 | 0.00 | 0.00 | 0.00 | 59 | 1010.9 |
| 20260509194023 | 68 | 100 | 1.7 | 7.0 | 0.00 | 0.00 | 0.00 | 62 | 1011.0 |
| 20260509193526 | 68 | 251 | 2.6 | 7.0 | 0.00 | 0.00 | 0.00 | 59 | 1011.0 |
| 20260509193022 | 68 | 249 | 2.6 | 6.1 | 0.00 | 0.00 | 0.00 | 59 | 1011.0 |
| 20260509192522 | 68 | 290 | 2.6 | 7.0 | 0.00 | 0.00 | 0.00 | 61 | 1011.2 |
| 20260509192036 | 68 | 137 | 2.6 | 7.0 | 0.00 | 0.00 | 0.00 | 59 | 1011.3 |
| 20260509191522 | 68 | 238 | 1.7 | 6.1 | 0.00 | 0.00 | 0.00 | 58 | 1011.4 |
| 20260509191022 | 69 | 237 | 1.7 | 6.1 | 0.00 | 0.00 | 0.00 | 57 | 1011.4 |
| 20260509190525 | 70 | 250 | 1.7 | 7.0 | 0.00 | 0.00 | 0.00 | 60 | 1011.5 |
| 20260509190035 | 70 | 158 | 1.7 | 7.0 | 0.00 | 0.00 | 0.00 | 58 | 1011.5 |
| 20260509185523 | 70 | 226 | 1.7 | 7.0 | 0.00 | 0.00 | 0.00 | 60 | 1011.4 |
| 20260509185019 | 70 | 259 | 0.9 | 8.7 | 0.00 | 0.00 | 0.00 | 63 | 1011.5 |
| 20260509184528 | 69 | 313 | 2.6 | 8.7 | 0.00 | 0.00 | 0.00 | 60 | 1011.4 |
| 20260509184018 | 69 | 131 | 1.7 | 7.0 | 0.00 | 0.00 | 0.00 | 62 | 1011.7 |
| 20260509183518 | 69 | 99 | 1.7 | 4.3 | 0.00 | 0.00 | 0.00 | 62 | 1011.8 |
| 20260509183026 | 68 | 277 | 0.9 | 5.2 | 0.00 | 0.00 | 0.00 | 64 | 1011.8 |
| 20260509182519 | 68 | 191 | 1.7 | 7.0 | 0.00 | 0.00 | 0.00 | 62 | 1011.9 |
| 20260509182019 | 68 | 117 | 1.7 | 7.0 | 0.00 | 0.00 | 0.00 | 60 | 1011.9 |
| 20260509181518 | 69 | 277 | 0.9 | 5.2 | 0.00 | 0.00 | 0.00 | 61 | 1011.7 |
| 20260509181021 | 70 | 151 | 1.7 | 7.8 | 0.00 | 0.00 | 0.00 | 58 | 1011.8 |
| 20260509180519 | 70 | 92 | 1.7 | 7.8 | 0.00 | 0.00 | 0.00 | 58 | 1011.8 |
| 20260509180015 | 70 | 81 | 0.9 | 6.1 | 0.00 | 0.00 | 0.00 | 60 | 1011.8 |
| 20260509175515 | 70 | 15 | 1.7 | 6.1 | 0.00 | 0.00 | 0.00 | 64 | 1011.8 |
| 20260509175016 | 69 | 233 | 1.7 | 7.0 | 0.00 | 0.00 | 0.00 | 64 | 1011.8 |
| 20260509174511 | 69 | 193 | 0.9 | 7.8 | 0.00 | 0.00 | 0.00 | 65 | 1012.0 |
| 20260509174011 | 69 | 131 | 1.7 | 7.8 | 0.00 | 0.00 | 0.00 | 65 | 1012.1 |
| 20260509173510 | 68 | 146 | 1.7 | 4.3 | 0.00 | 0.00 | 0.00 | 65 | 1012.1 |
| 20260509173012 | 67 | 144 | 1.7 | 4.3 | 0.00 | 0.00 | 0.00 | 67 | 1012.2 |
| 20260509172507 | 67 | 146 | 0.9 | 5.2 | 0.00 | 0.00 | 0.00 | 63 | 1012.2 |
| 20260509172006 | 67 | 139 | 1.7 | 5.2 | 0.00 | 0.00 | 0.00 | 65 | 1012.3 |
| 20260509171506 | 67 | 154 | 1.7 | 6.1 | 0.00 | 0.00 | 0.00 | 62 | 1012.4 |
| 20260509171004 | 67 | 199 | 2.6 | 6.1 | 0.00 | 0.00 | 0.00 | 66 | 1012.5 |
| 20260509170502 | 66 | 252 | 1.7 | 6.1 | 0.00 | 0.00 | 0.00 | 66 | 1012.5 |
| 20260509170006 | 65 | 224 | 1.7 | 7.0 | 0.00 | 0.00 | 0.00 | 65 | 1012.6 |
| 20260509165502 | 64 | 110 | 1.7 | 7.8 | 0.00 | 0.00 | 0.00 | 64 | 1012.7 |
| 20260509165003 | 64 | 217 | 2.6 | 7.8 | 0.00 | 0.00 | 0.00 | 65 | 1012.9 |
| 20260509164503 | 64 | 205 | 1.7 | 7.8 | 0.00 | 0.00 | 0.00 | 68 | 1012.9 |
| 20260509164002 | 65 | 248 | 2.6 | 7.8 | 0.00 | 0.00 | 0.00 | 64 | 1012.9 |
| 20260509163601 | 65 | 124 | 1.7 | 7.8 | 0.00 | 0.00 | 0.00 | 66 | 1012.7 |
| 20260509163203 | 65 | 245 | 2.6 | 5.2 | 0.00 | 0.00 | 0.00 | 69 | 1012.7 |
| 20260509162601 | 64 | 101 | 0.9 | 4.3 | 0.00 | 0.00 | 0.00 | 71 | 1012.7 |
| 20260509162057 | 64 | 147 | 0.9 | 4.3 | 0.00 | 0.00 | 0.00 | 71 | 1013.0 |
| 20260509161558 | 63 | 172 | 0.9 | 3.5 | 0.00 | 0.00 | 0.00 | 74 | 1013.0 |
| 20260509161055 | 62 | 135 | 0.0 | 4.3 | 0.00 | 0.00 | 0.00 | 74 | 1013.1 |
| 20260509160555 | 62 | 260 | 1.7 | 4.3 | 0.00 | 0.00 | 0.00 | 72 | 1013.1 |
| 20260509160056 | 62 | 141 | 0.9 | 5.2 | 0.00 | 0.00 | 0.00 | 74 | 1013.1 |
| 20260509155556 | 62 | 199 | 0.9 | 4.3 | 0.00 | 0.00 | 0.00 | 73 | 1012.9 |
| 20260509155054 | 62 | 44 | 0.9 | 4.3 | 0.00 | 0.00 | 0.00 | 71 | 1013.0 |
| 20260509154554 | 62 | 70 | 0.9 | 4.3 | 0.00 | 0.00 | 0.00 | 72 | 1012.8 |
| 20260509154054 | 63 | 235 | 0.9 | 4.3 | 0.00 | 0.00 | 0.00 | 72 | 1013.0 |
| 20260509153553 | 62 | 268 | 0.9 | 3.5 | 0.00 | 0.00 | 0.00 | 73 | 1012.8 |
| 20260509153052 | 62 | 260 | 0.9 | 5.2 | 0.00 | 0.00 | 0.00 | 73 | 1013.0 |
| 20260509152551 | 61 | 242 | 1.7 | 7.0 | 0.00 | 0.00 | 0.00 | 75 | 1013.1 |
| 20260509152051 | 61 | 172 | 1.7 | 7.0 | 0.00 | 0.00 | 0.00 | 74 | 1013.1 |
| 20260509151557 | 61 | 195 | 0.9 | 6.1 | 0.00 | 0.00 | 0.00 | 73 | 1013.2 |
| 20260509151051 | 61 | 70 | 1.7 | 6.1 | 0.00 | 0.00 | 0.00 | 73 | 1013.1 |
| 20260509150549 | 61 | 233 | 1.7 | 7.0 | 0.00 | 0.00 | 0.00 | 73 | 1013.1 |
| 20260509150049 | 61 | 226 | 1.7 | 7.0 | 0.00 | 0.00 | 0.00 | 73 | 1013.3 |
| 20260509145549 | 60 | 277 | 0.9 | 4.3 | 0.00 | 0.00 | 0.00 | 74 | 1013.4 |
| 20260509145049 | 60 | 260 | 1.7 | 5.2 | 0.00 | 0.00 | 0.00 | 74 | 1013.2 |
| 20260509144551 | 60 | 163 | 1.7 | 5.2 | 0.00 | 0.00 | 0.00 | 73 | 1013.2 |
| 20260509144048 | 61 | 81 | 1.7 | 6.1 | 0.00 | 0.00 | 0.00 | 72 | 1013.2 |
| 20260509143548 | 61 | 260 | 1.7 | 6.1 | 0.00 | 0.00 | 0.00 | 72 | 1013.1 |
| 20260509143047 | 61 | 165 | 1.7 | 5.2 | 0.00 | 0.00 | 0.00 | 71 | 1013.0 |
| 20260509142546 | 61 | 128 | 1.7 | 5.2 | 0.00 | 0.00 | 0.00 | 74 | 1013.0 |
| 20260509142045 | 60 | 229 | 0.9 | 6.1 | 0.00 | 0.00 | 0.00 | 72 | 1013.0 |
| 20260509141548 | 60 | 127 | 0.9 | 8.7 | 0.00 | 0.00 | 0.00 | 74 | 1013.1 |
| 20260509141042 | 60 | 108 | 1.7 | 8.7 | 0.00 | 0.00 | 0.00 | 73 | 1012.8 |
| 20260509140540 | 59 | 140 | 1.7 | 6.1 | 0.00 | 0.00 | 0.00 | 75 | 1012.8 |
| 20260509140039 | 59 | 311 | 0.9 | 4.3 | 0.00 | 0.00 | 0.00 | 76 | 1012.9 |
| 20260509135538 | 58 | 138 | 0.9 | 3.5 | 0.00 | 0.00 | 0.00 | 77 | 1012.9 |
| 20260509135036 | 58 | 151 | 0.9 | 3.5 | 0.00 | 0.00 | 0.00 | 76 | 1012.9 |
| 20260509134548 | 58 | 122 | 0.9 | 3.5 | 0.00 | 0.00 | 0.00 | 76 | 1013.1 |
| 20260509134038 | 57 | 195 | 0.9 | 3.5 | 0.00 | 0.00 | 0.00 | 76 | 1013.2 |
| 20260509133534 | 57 | 215 | 0.9 | 4.3 | 0.00 | 0.00 | 0.00 | 75 | 1013.3 |
| 20260509133034 | 57 | 232 | 0.9 | 5.2 | 0.00 | 0.00 | 0.00 | 76 | 1013.5 |
| 20260509132530 | 57 | 304 | 1.7 | 5.2 | 0.00 | 0.00 | 0.00 | 76 | 1013.6 |
| 20260509132028 | 56 | 240 | 0.0 | 4.3 | 0.00 | 0.00 | 0.00 | 78 | 1013.4 |
| 20260509131543 | 56 | 1 | 0.9 | 4.3 | 0.00 | 0.00 | 0.00 | 77 | 1013.6 |
| 20260509131025 | 55 | 232 | 1.7 | 4.3 | 0.00 | 0.00 | 0.00 | 78 | 1013.5 |
| 20260509130527 | 55 | 244 | 0.9 | 4.3 | 0.00 | 0.00 | 0.00 | 77 | 1013.5 |
| 20260509130040 | 55 | 286 | 0.9 | 4.3 | 0.00 | 0.00 | 0.00 | 77 | 1013.7 |
| 20260509125522 | 54 | 74 | 0.0 | 4.3 | 0.00 | 0.00 | 0.00 | 77 | 1013.8 |
| 20260509125022 | 54 | 209 | 0.9 | 4.3 | 0.00 | 0.00 | 0.00 | 76 | 1013.8 |
| 20260509124527 | 54 | 44 | 0.9 | 4.3 | 0.00 | 0.00 | 0.00 | 76 | 1013.8 |
| 20260509124018 | 53 | 209 | 0.9 | 5.2 | 0.00 | 0.00 | 0.00 | 74 | 1013.9 |
| 20260509123517 | 53 | 216 | 0.0 | 5.2 | 0.00 | 0.00 | 0.00 | 73 | 1013.9 |
| 20260509123024 | 53 | 172 | 0.9 | 2.6 | 0.00 | 0.00 | 0.00 | 72 | 1014.0 |
| 20260509122513 | 53 | 172 | 0.9 | 3.5 | 0.00 | 0.00 | 0.00 | 72 | 1014.0 |
| 20260509122013 | 53 | 139 | 0.9 | 3.5 | 0.00 | 0.00 | 0.00 | 72 | 1014.0 |
| 20260509121517 | 53 | 321 | 0.9 | 2.6 | 0.00 | 0.00 | 0.00 | 73 | 1013.9 |
| 20260509121012 | 53 | 311 | 0.9 | 2.6 | 0.00 | 0.00 | 0.00 | 74 | 1013.9 |
| 20260509120516 | 53 | 321 | 0.9 | 2.6 | 0.00 | 0.00 | 0.00 | 74 | 1013.7 |
| 20260509120110 | 53 | 216 | 0.9 | 2.6 | 0.00 | 0.00 | 0.00 | 73 | 1013.7 |
| 20260509115509 | 53 | 321 | 0.9 | 3.5 | 0.00 | 0.00 | 0.00 | 73 | 1013.7 |
| 20260509115007 | 53 | 231 | 0.9 | 3.5 | 0.00 | 0.00 | 0.00 | 73 | 1013.9 |
| 20260509114506 | 52 | 172 | 0.9 | 2.6 | 0.00 | 0.00 | 0.00 | 72 | 1014.0 |
| 20260509114005 | 52 | 224 | 0.9 | 2.6 | 0.00 | 0.00 | 0.00 | 72 | 1014.0 |
| 20260509113504 | 52 | 278 | 0.0 | 2.6 | 0.00 | 0.00 | 0.00 | 72 | 1013.8 |
| 20260509113003 | 52 | 1 | 0.0 | 2.6 | 0.00 | 0.00 | 0.00 | 71 | 1013.9 |
| 20260509112501 | 52 | 304 | 0.0 | 2.6 | 0.00 | 0.00 | 0.00 | 72 | 1013.7 |
| 20260509112100 | 52 | 229 | 0.9 | 2.6 | 0.00 | 0.00 | 0.00 | 72 | 1013.7 |
| 20260509111605 | 52 | 290 | 0.0 | 2.6 | 0.00 | 0.00 | 0.00 | 72 | 1013.6 |
| 20260509111058 | 52 | 268 | 0.0 | 2.6 | 0.00 | 0.00 | 0.00 | 72 | 1013.6 |
| 20260509110556 | 51 | 304 | 0.0 | 2.6 | 0.00 | 0.00 | 0.00 | 71 | 1013.6 |
| 20260509110105 | 51 | 44 | 0.0 | 2.6 | 0.00 | 0.00 | 0.00 | 71 | 1013.6 |
| 20260509105556 | 51 | 44 | 0.9 | 3.5 | 0.00 | 0.00 | 0.00 | 72 | 1013.5 |
| 20260509105053 | 51 | 216 | 0.9 | 3.5 | 0.00 | 0.00 | 0.00 | 72 | 1013.5 |
| 20260509104557 | 51 | 86 | 0.9 | 2.6 | 0.00 | 0.00 | 0.00 | 72 | 1013.4 |
| 20260509104051 | 51 | 304 | 0.9 | 2.6 | 0.00 | 0.00 | 0.00 | 73 | 1013.3 |
| 20260509103549 | 50 | 233 | 0.0 | 1.7 | 0.00 | 0.00 | 0.00 | 72 | 1013.3 |
| 20260509103048 | 51 | 304 | 0.0 | 1.7 | 0.00 | 0.00 | 0.00 | 72 | 1013.3 |
| 20260509102548 | 51 | 261 | 0.9 | 2.6 | 0.00 | 0.00 | 0.00 | 71 | 1013.3 |
| 20260509102047 | 51 | 224 | 0.0 | 2.6 | 0.00 | 0.00 | 0.00 | 71 | 1013.4 |
| 20260509101547 | 51 | 261 | 0.0 | 2.6 | 0.00 | 0.00 | 0.00 | 71 | 1013.4 |
| 20260509101050 | 51 | 216 | 0.0 | 2.6 | 0.00 | 0.00 | 0.00 | 70 | 1013.5 |
| 20260509100545 | 51 | 172 | 0.0 | 1.7 | 0.00 | 0.00 | 0.00 | 69 | 1013.5 |
| 20260509100045 | 51 | 44 | 0.0 | 2.6 | 0.00 | 0.00 | 0.00 | 69 | 1013.5 |
| 20260509095547 | 51 | 147 | 0.0 | 2.6 | 0.00 | 0.00 | 0.00 | 69 | 1013.5 |
| 20260509095044 | 51 | 222 | 0.9 | 2.6 | 0.00 | 0.00 | 0.00 | 69 | 1013.5 |
| 20260509094544 | 51 | 245 | 0.9 | 1.7 | 0.00 | 0.00 | 0.00 | 69 | 1013.5 |
| 20260509094044 | 51 | 233 | 0.0 | 1.7 | 0.00 | 0.00 | 0.00 | 69 | 1013.7 |
| 20260509093543 | 51 | 261 | 0.0 | 1.7 | 0.00 | 0.00 | 0.00 | 69 | 1013.6 |
| 20260509093043 | 52 | 261 | 0.0 | 1.7 | 0.00 | 0.00 | 0.00 | 69 | 1013.5 |
| 20260509092546 | 52 | 86 | 0.0 | 1.7 | 0.00 | 0.00 | 0.00 | 69 | 1013.5 |
| 20260509092042 | 52 | 238 | 0.0 | 1.7 | 0.00 | 0.00 | 0.00 | 69 | 1013.6 |
| 20260509091543 | 52 | 86 | 0.0 | 1.7 | 0.00 | 0.00 | 0.00 | 69 | 1013.5 |
| 20260509091042 | 52 | 105 | 0.0 | 2.6 | 0.00 | 0.00 | 0.00 | 69 | 1013.6 |
| 20260509090542 | 52 | 226 | 0.0 | 3.5 | 0.00 | 0.00 | 0.00 | 69 | 1013.7 |
| 20260509090048 | 52 | 123 | 0.0 | 4.3 | 0.00 | 0.00 | 0.00 | 69 | 1013.9 |
| 20260509085539 | 52 | 44 | 0.0 | 4.3 | 0.00 | 0.00 | 0.00 | 69 | 1013.7 |
| 20260509085040 | 52 | 330 | 0.0 | 1.7 | 0.00 | 0.00 | 0.00 | 69 | 1013.7 |
| 20260509084541 | 52 | 233 | 0.0 | 2.6 | 0.00 | 0.00 | 0.00 | 69 | 1013.6 |
| 20260509084040 | 51 | 314 | 0.0 | 2.6 | 0.00 | 0.00 | 0.00 | 69 | 1013.7 |
| 20260509083540 | 51 | 311 | 0.9 | 2.6 | 0.00 | 0.00 | 0.00 | 68 | 1013.8 |
| 20260509083044 | 51 | 261 | 0.0 | 1.7 | 0.00 | 0.00 | 0.00 | 68 | 1013.8 |
| 20260509082537 | 51 | 261 | 0.0 | 1.7 | 0.00 | 0.00 | 0.00 | 67 | 1013.8 |
| 20260509082038 | 51 | 261 | 0.0 | 1.7 | 0.00 | 0.00 | 0.00 | 67 | 1013.9 |